Zurück zum Katalog

STARLINK-30912

AktivKommunikationVLEO
NORAD 58422·PAYLOAD·🇺🇸 United States

Gestartet Nov 22, 2023 von Cape Canaveral Space Force Station

Loading…

Nächste Überflüge (nächste 24 Stunden)

TLE

AktuellSource: CelesTrak SupGP

Epoche: Sep 15, 2026, 03:06 UTC

1 58422C 23180W   26258.12965278 -.00003295  00000+0 -11936-3 0  2589
2 58422  43.0001 280.4438 0001395 258.4964 333.7863 15.27578531    14

Verfolge STARLINK-30912 in Echtzeit mit AllMySat

Download on the App Store